Time,TemperatureF,DewpointF,PressureIn,WindDirection,WindDirectionDegrees,WindSpeedMPH,WindSpeedGustMPH,Humidity,HourlyPrecipIn,Conditions,Clouds,dailyrainin,SoftwareType,DateUTC
2013-08-14 00:03:00,79.0,70.4,29.94,East,90,0.0,0.0,75,0.00,,,0.00,WSDL version 420,2013-08-14 04:03:00,
2013-08-14 00:08:00,78.7,70.1,29.94,East,90,0.0,0.0,75,0.00,,,0.00,WSDL version 420,2013-08-14 04:08:00,
2013-08-14 00:13:00,78.6,70.4,29.94,East,90,0.0,0.0,76,0.00,,,0.00,WSDL version 420,2013-08-14 04:13:00,
2013-08-14 00:18:00,78.4,70.2,29.94,East,90,0.0,0.0,76,0.00,,,0.00,WSDL version 420,2013-08-14 04:18:00,
2013-08-14 00:23:00,78.4,70.2,29.94,East,90,0.0,0.0,76,0.00,,,0.00,WSDL version 420,2013-08-14 04:23:00,
2013-08-14 00:28:00,78.4,70.2,29.94,East,90,0.0,0.0,76,0.00,,,0.00,WSDL version 420,2013-08-14 04:28:00,
2013-08-14 00:33:00,78.3,70.4,29.94,East,90,0.0,0.0,77,0.00,,,0.00,WSDL version 420,2013-08-14 04:33:00,
2013-08-14 00:38:00,78.1,70.3,29.94,East,90,0.0,0.0,77,0.00,,,0.00,WSDL version 420,2013-08-14 04:38:00,
2013-08-14 00:43:00,77.9,70.2,29.94,East,90,0.0,0.0,77,0.00,,,0.00,WSDL version 420,2013-08-14 04:43:00,
2013-08-14 00:48:00,77.9,70.5,29.94,East,90,0.0,0.0,78,0.00,,,0.00,WSDL version 420,2013-08-14 04:48:00,
2013-08-14 00:53:00,78.0,70.6,29.94,East,90,0.0,0.0,78,0.00,,,0.00,WSDL version 420,2013-08-14 04:53:00,
2013-08-14 00:58:00,78.1,70.9,29.94,East,90,0.0,0.0,79,0.00,,,0.00,WSDL version 420,2013-08-14 04:58:00,
2013-08-14 01:03:00,77.9,70.5,29.94,East,90,0.0,0.0,78,0.00,,,0.00,WSDL version 420,2013-08-14 05:03:00,
2013-08-14 01:08:00,77.9,70.9,29.94,East,90,0.0,0.0,79,0.00,,,0.00,WSDL version 420,2013-08-14 05:08:00,
2013-08-14 01:13:00,77.8,70.7,29.91,East,90,0.0,0.0,79,0.00,,,0.00,WSDL version 420,2013-08-14 05:13:00,
2013-08-14 01:18:00,77.7,70.7,29.91,East,90,0.0,0.0,79,0.00,,,0.00,WSDL version 420,2013-08-14 05:18:00,
2013-08-14 01:23:00,77.7,70.7,29.91,East,90,0.0,0.0,79,0.00,,,0.00,WSDL version 420,2013-08-14 05:23:00,
2013-08-14 01:28:00,77.7,70.6,29.91,East,90,0.0,0.0,79,0.00,,,0.00,WSDL version 420,2013-08-14 05:28:00,
2013-08-14 01:33:00,77.5,70.5,29.91,East,90,0.0,0.0,79,0.00,,,0.00,WSDL version 420,2013-08-14 05:33:00,
2013-08-14 01:38:00,77.5,70.5,29.91,East,90,0.0,0.0,79,0.00,,,0.00,WSDL version 420,2013-08-14 05:38:00,
2013-08-14 01:43:00,77.4,70.5,29.91,East,90,0.0,0.0,80,0.00,,,0.00,WSDL version 420,2013-08-14 05:43:00,
2013-08-14 01:48:00,77.4,70.7,29.91,East,90,0.0,0.0,80,0.00,,,0.00,WSDL version 420,2013-08-14 05:48:00,
2013-08-14 01:53:00,77.4,70.7,29.91,East,90,0.0,0.0,80,0.00,,,0.00,WSDL version 420,2013-08-14 05:53:00,
2013-08-14 01:58:00,77.4,70.7,29.88,East,90,0.0,0.0,80,0.00,,,0.00,WSDL version 420,2013-08-14 05:58:00,
2013-08-14 02:03:00,77.3,70.7,29.88,East,90,0.0,0.0,80,0.00,,,0.00,WSDL version 420,2013-08-14 06:03:00,
2013-08-14 02:08:00,77.2,70.5,29.88,East,90,0.0,0.0,80,0.00,,,0.00,WSDL version 420,2013-08-14 06:08:00,
2013-08-14 02:13:00,77.2,70.5,29.88,East,90,0.0,0.0,80,0.00,,,0.00,WSDL version 420,2013-08-14 06:13:00,
2013-08-14 02:18:00,77.0,70.4,29.88,East,90,0.0,0.0,80,0.00,,,0.00,WSDL version 420,2013-08-14 06:18:00,
2013-08-14 02:23:00,77.0,70.4,29.88,East,90,0.0,0.0,80,0.00,,,0.00,WSDL version 420,2013-08-14 06:23:00,
2013-08-14 02:28:00,77.0,70.6,29.91,East,90,0.0,0.0,81,0.00,,,0.00,WSDL version 420,2013-08-14 06:28:00,
2013-08-14 02:33:00,77.0,70.8,29.91,East,90,0.0,0.0,81,0.00,,,0.00,WSDL version 420,2013-08-14 06:33:00,
2013-08-14 02:38:00,76.9,70.6,29.91,East,90,0.0,0.0,81,0.00,,,0.00,WSDL version 420,2013-08-14 06:38:00,
2013-08-14 02:43:00,76.7,70.5,29.91,East,90,0.0,0.0,81,0.00,,,0.00,WSDL version 420,2013-08-14 06:43:00,
2013-08-14 02:48:00,76.6,70.4,29.91,East,90,0.0,0.0,81,0.00,,,0.00,WSDL version 420,2013-08-14 06:48:00,
2013-08-14 02:53:00,76.5,70.3,29.91,East,90,0.0,0.0,82,0.00,,,0.00,WSDL version 420,2013-08-14 06:53:00,
2013-08-14 02:58:00,76.5,70.6,29.91,East,90,0.0,0.0,82,0.00,,,0.00,WSDL version 420,2013-08-14 06:58:00,
2013-08-14 03:03:00,76.5,70.6,29.91,East,90,0.0,0.0,82,0.00,,,0.00,WSDL version 420,2013-08-14 07:03:00,
2013-08-14 03:08:00,76.3,70.5,29.91,East,90,0.0,0.0,82,0.00,,,0.00,WSDL version 420,2013-08-14 07:08:00,
2013-08-14 03:13:00,76.3,70.5,29.91,East,90,0.0,0.0,82,0.00,,,0.00,WSDL version 420,2013-08-14 07:13:00,
2013-08-14 03:18:00,76.2,70.4,29.91,East,90,0.0,0.0,82,0.00,,,0.00,WSDL version 420,2013-08-14 07:18:00,
2013-08-14 03:23:00,76.1,70.3,29.91,East,90,0.0,0.0,82,0.00,,,0.00,WSDL version 420,2013-08-14 07:23:00,
2013-08-14 03:28:00,76.0,70.5,29.91,East,90,0.0,0.0,83,0.00,,,0.00,WSDL version 420,2013-08-14 07:28:00,
2013-08-14 03:33:00,75.9,70.5,29.91,East,90,0.0,0.0,83,0.00,,,0.00,WSDL version 420,2013-08-14 07:33:00,
2013-08-14 03:38:00,75.9,70.5,29.91,East,90,0.0,0.0,83,0.00,,,0.00,WSDL version 420,2013-08-14 07:38:00,
2013-08-14 03:48:00,75.7,70.3,29.91,East,90,0.0,0.0,83,0.00,,,0.00,WSDL version 420,2013-08-14 07:48:00,
2013-08-14 03:53:00,75.7,70.3,29.91,East,90,0.0,0.0,83,0.00,,,0.00,WSDL version 420,2013-08-14 07:53:00,
2013-08-14 03:58:00,75.7,70.6,29.91,East,90,0.0,0.0,84,0.00,,,0.00,WSDL version 420,2013-08-14 07:58:00,
2013-08-14 04:03:00,75.7,70.7,29.91,East,90,0.0,0.0,84,0.00,,,0.00,WSDL version 420,2013-08-14 08:03:00,
2013-08-14 04:08:00,75.7,70.7,29.91,East,90,0.0,0.0,84,0.00,,,0.00,WSDL version 420,2013-08-14 08:08:00,
2013-08-14 04:13:00,75.6,70.5,29.91,East,90,0.0,0.0,84,0.00,,,0.00,WSDL version 420,2013-08-14 08:13:00,
2013-08-14 04:18:00,75.6,70.5,29.91,East,90,0.0,0.0,84,0.00,,,0.00,WSDL version 420,2013-08-14 08:18:00,
2013-08-14 04:23:00,75.4,70.4,29.91,East,90,0.0,0.0,84,0.00,,,0.00,WSDL version 420,2013-08-14 08:23:00,
2013-08-14 04:28:00,75.3,70.5,29.91,East,90,0.0,0.0,86,0.00,,,0.00,WSDL version 420,2013-08-14 08:28:00,
2013-08-14 04:33:00,75.2,70.6,29.91,East,90,0.0,0.0,86,0.00,,,0.00,WSDL version 420,2013-08-14 08:33:00,
2013-08-14 04:43:00,75.2,70.6,29.88,East,90,0.0,0.0,86,0.00,,,0.00,WSDL version 420,2013-08-14 08:43:00,
2013-08-14 04:48:00,75.2,70.8,29.88,East,90,0.0,0.0,87,0.00,,,0.00,WSDL version 420,2013-08-14 08:48:00,
2013-08-14 04:53:00,75.2,71.0,29.88,East,90,0.0,0.0,87,0.00,,,0.00,WSDL version 420,2013-08-14 08:53:00,
2013-08-14 04:58:00,75.1,70.8,29.88,East,90,0.0,0.0,87,0.00,,,0.00,WSDL version 420,2013-08-14 08:58:00,
2013-08-14 05:03:00,75.0,70.8,29.88,East,90,0.0,0.0,87,0.00,,,0.00,WSDL version 420,2013-08-14 09:03:00,
2013-08-14 05:08:00,75.0,71.0,29.88,East,90,0.0,0.0,88,0.00,,,0.00,WSDL version 420,2013-08-14 09:08:00,
2013-08-14 05:13:00,75.0,71.2,29.88,East,90,0.0,0.0,88,0.00,,,0.00,WSDL version 420,2013-08-14 09:13:00,
2013-08-14 05:18:00,75.0,71.2,29.88,East,90,0.0,0.0,88,0.00,,,0.00,WSDL version 420,2013-08-14 09:18:00,
2013-08-14 05:23:00,74.9,71.1,29.88,East,90,0.0,0.0,88,0.00,,,0.00,WSDL version 420,2013-08-14 09:23:00,
2013-08-14 05:28:00,74.8,71.0,29.88,East,90,0.0,0.0,88,0.00,,,0.00,WSDL version 420,2013-08-14 09:28:00,
2013-08-14 05:33:00,74.8,71.0,29.88,East,90,0.0,0.0,88,0.00,,,0.00,WSDL version 420,2013-08-14 09:33:00,
2013-08-14 05:38:00,74.8,71.0,29.88,East,90,0.0,0.0,88,0.00,,,0.00,WSDL version 420,2013-08-14 09:38:00,
2013-08-14 05:43:00,74.8,71.0,29.88,East,90,0.0,0.0,88,0.00,,,0.00,WSDL version 420,2013-08-14 09:43:00,
2013-08-14 05:48:00,74.8,71.0,29.88,East,90,0.0,0.0,88,0.00,,,0.00,WSDL version 420,2013-08-14 09:48:00,
2013-08-14 05:53:00,74.8,71.0,29.88,East,90,0.0,0.0,88,0.00,,,0.00,WSDL version 420,2013-08-14 09:53:00,
2013-08-14 05:58:00,74.8,71.0,29.88,East,90,0.0,0.0,88,0.00,,,0.00,WSDL version 420,2013-08-14 09:58:00,
2013-08-14 06:03:00,74.8,71.0,29.88,East,90,0.0,0.0,88,0.00,,,0.00,WSDL version 420,2013-08-14 10:03:00,
2013-08-14 06:08:00,74.7,70.8,29.88,East,90,0.0,0.0,88,0.00,,,0.00,WSDL version 420,2013-08-14 10:08:00,
2013-08-14 06:13:00,74.7,70.8,29.88,East,90,0.0,0.0,88,0.00,,,0.00,WSDL version 420,2013-08-14 10:13:00,
2013-08-14 06:18:00,74.7,70.8,29.88,East,90,0.0,0.0,88,0.00,,,0.00,WSDL version 420,2013-08-14 10:18:00,
2013-08-14 06:23:00,74.5,70.7,29.88,East,90,0.0,0.0,88,0.00,,,0.00,WSDL version 420,2013-08-14 10:23:00,
2013-08-14 06:28:00,74.5,70.6,29.88,East,90,0.0,0.0,88,0.00,,,0.00,WSDL version 420,2013-08-14 10:28:00,
2013-08-14 06:33:00,74.5,70.6,29.88,East,90,0.0,0.0,88,0.00,,,0.00,WSDL version 420,2013-08-14 10:33:00,
2013-08-14 06:38:00,74.5,71.0,29.88,East,90,0.0,0.0,89,0.00,,,0.00,WSDL version 420,2013-08-14 10:38:00,
2013-08-14 06:43:00,74.5,71.0,29.88,East,90,0.0,0.0,89,0.00,,,0.00,WSDL version 420,2013-08-14 10:43:00,
2013-08-14 06:48:00,74.5,71.0,29.88,East,90,0.0,0.0,89,0.00,,,0.00,WSDL version 420,2013-08-14 10:48:00,
2013-08-14 06:53:00,74.7,71.2,29.88,East,90,0.0,0.0,89,0.00,,,0.00,WSDL version 420,2013-08-14 10:53:00,
2013-08-14 06:58:00,74.7,71.2,29.91,East,90,0.0,0.0,89,0.00,,,0.00,WSDL version 420,2013-08-14 10:58:00,
2013-08-14 07:03:00,74.8,71.3,29.91,East,90,0.0,0.0,89,0.00,,,0.00,WSDL version 420,2013-08-14 11:03:00,
2013-08-14 07:08:00,74.8,71.3,29.91,East,90,0.0,0.0,89,0.00,,,0.00,WSDL version 420,2013-08-14 11:08:00,
2013-08-14 07:13:00,75.1,71.6,29.91,East,90,0.0,0.0,89,0.00,,,0.00,WSDL version 420,2013-08-14 11:13:00,
2013-08-14 07:18:00,75.2,71.7,29.91,East,90,0.0,0.0,89,0.00,,,0.00,WSDL version 420,2013-08-14 11:18:00,
2013-08-14 07:23:00,75.3,71.8,29.91,East,90,0.0,0.0,89,0.00,,,0.00,WSDL version 420,2013-08-14 11:23:00,
2013-08-14 07:28:00,75.5,72.0,29.91,East,90,0.0,0.0,89,0.00,,,0.00,WSDL version 420,2013-08-14 11:28:00,
2013-08-14 07:33:00,75.7,72.2,29.91,East,90,0.0,0.0,89,0.00,,,0.00,WSDL version 420,2013-08-14 11:33:00,
2013-08-14 07:38:00,76.0,72.3,29.91,East,90,0.0,0.0,88,0.00,,,0.00,WSDL version 420,2013-08-14 11:38:00,
2013-08-14 07:43:00,76.3,72.4,29.91,East,90,0.0,0.0,88,0.00,,,0.00,WSDL version 420,2013-08-14 11:43:00,
2013-08-14 07:48:00,76.7,72.4,29.91,East,90,0.0,0.0,87,0.00,,,0.00,WSDL version 420,2013-08-14 11:48:00,
2013-08-14 07:53:00,77.1,72.8,29.91,ESE,113,0.0,0.9,87,0.00,,,0.00,WSDL version 420,2013-08-14 11:53:00,
2013-08-14 07:58:00,77.5,73.2,29.91,SE,129,0.0,0.9,87,0.00,,,0.00,WSDL version 420,2013-08-14 11:58:00,
2013-08-14 08:03:00,77.9,73.6,29.91,NE,41,0.0,0.0,87,0.00,,,0.00,WSDL version 420,2013-08-14 12:03:00,
2013-08-14 08:08:00,78.3,74.0,29.91,ESE,113,0.0,0.0,87,0.00,,,0.00,WSDL version 420,2013-08-14 12:08:00,
2013-08-14 08:13:00,78.6,74.1,29.91,ESE,113,0.0,0.0,86,0.00,,,0.00,WSDL version 420,2013-08-14 12:13:00,
2013-08-14 08:18:00,79.0,74.3,29.91,ESE,113,0.0,0.0,86,0.00,,,0.00,WSDL version 420,2013-08-14 12:18:00,
2013-08-14 08:23:00,79.3,74.6,29.91,NE,48,0.0,0.0,86,0.00,,,0.00,WSDL version 420,2013-08-14 12:23:00,
2013-08-14 08:28:00,80.0,75.3,29.91,NNE,23,0.0,0.0,86,0.00,,,0.00,WSDL version 420,2013-08-14 12:28:00,
2013-08-14 08:33:00,80.6,75.5,29.91,NNE,23,0.0,0.9,83,0.00,,,0.00,WSDL version 420,2013-08-14 12:33:00,
2013-08-14 08:38:00,81.4,75.9,29.91,East,81,0.0,0.9,83,0.00,,,0.00,WSDL version 420,2013-08-14 12:38:00,
2013-08-14 08:43:00,82.1,76.1,29.91,ESE,116,0.0,0.0,80,0.00,,,0.00,WSDL version 420,2013-08-14 12:43:00,
2013-08-14 08:48:00,82.8,75.7,29.91,East,95,0.3,2.0,79,0.00,,,0.00,WSDL version 420,2013-08-14 12:48:00,
2013-08-14 08:53:00,84.2,76.4,29.91,SSE,158,0.0,2.0,77,0.00,,,0.00,WSDL version 420,2013-08-14 12:53:00,
2013-08-14 08:58:00,85.9,77.6,29.91,SSE,154,1.2,2.5,76,0.00,,,0.00,WSDL version 420,2013-08-14 12:58:00,
2013-08-14 09:03:00,87.7,77.6,29.91,SSE,151,1.6,3.1,70,0.00,,,0.00,WSDL version 420,2013-08-14 13:03:00,
2013-08-14 09:08:00,89.4,77.0,29.91,SSE,167,1.2,3.6,66,0.00,,,0.00,WSDL version 420,2013-08-14 13:08:00,
2013-08-14 09:13:00,91.0,76.6,29.91,South,186,2.4,3.6,62,0.00,,,0.00,WSDL version 420,2013-08-14 13:13:00,
2013-08-14 09:18:00,92.2,76.7,29.91,South,177,1.9,3.6,59,0.00,,,0.00,WSDL version 420,2013-08-14 13:18:00,
2013-08-14 09:23:00,92.8,75.0,29.91,South,173,1.6,4.0,55,0.00,,,0.00,WSDL version 420,2013-08-14 13:23:00,
2013-08-14 09:28:00,91.9,73.2,29.88,South,169,2.2,4.3,54,0.00,,,0.00,WSDL version 420,2013-08-14 13:28:00,
2013-08-14 09:33:00,93.9,75.3,29.88,NE,51,1.6,4.3,55,0.00,,,0.00,WSDL version 420,2013-08-14 13:33:00,
2013-08-14 09:38:00,93.1,73.4,29.88,SSE,155,3.5,5.8,53,0.00,,,0.00,WSDL version 420,2013-08-14 13:38:00,
2013-08-14 09:43:00,94.3,74.0,29.91,SE,141,0.4,5.8,51,0.00,,,0.00,WSDL version 420,2013-08-14 13:43:00,
2013-08-14 09:48:00,94.8,73.2,29.91,South,173,0.6,4.5,49,0.00,,,0.00,WSDL version 420,2013-08-14 13:48:00,
2013-08-14 09:53:00,93.9,71.9,29.91,SSE,155,2.0,5.4,50,0.00,,,0.00,WSDL version 420,2013-08-14 13:53:00,
2013-08-14 09:58:00,96.0,73.5,29.91,SSE,150,3.7,5.4,48,0.00,,,0.00,WSDL version 420,2013-08-14 13:58:00,
2013-08-14 10:03:00,96.7,72.5,29.91,South,180,2.3,5.4,46,0.00,,,0.00,WSDL version 420,2013-08-14 14:03:00,
2013-08-14 10:08:00,96.9,71.9,29.91,South,189,3.2,5.4,44,0.00,,,0.00,WSDL version 420,2013-08-14 14:08:00,
2013-08-14 10:13:00,93.7,68.3,29.91,South,180,2.4,4.3,44,0.00,,,0.00,WSDL version 420,2013-08-14 14:13:00,
2013-08-14 10:18:00,91.8,67.9,29.91,South,174,1.2,4.0,47,0.00,,,0.00,WSDL version 420,2013-08-14 14:18:00,
2013-08-14 10:23:00,91.9,68.8,29.91,South,180,0.6,4.0,47,0.00,,,0.00,WSDL version 420,2013-08-14 14:23:00,
2013-08-14 10:28:00,92.6,69.4,29.91,SE,145,1.1,2.9,47,0.00,,,0.00,WSDL version 420,2013-08-14 14:28:00,
2013-08-14 10:33:00,93.4,70.7,29.91,SW,225,1.5,3.8,47,0.00,,,0.00,WSDL version 420,2013-08-14 14:33:00,
2013-08-14 10:38:00,93.9,70.9,29.91,SSE,160,0.3,3.8,47,0.00,,,0.00,WSDL version 420,2013-08-14 14:38:00,
2013-08-14 10:43:00,94.3,71.2,29.91,SE,125,1.8,5.6,47,0.00,,,0.00,WSDL version 420,2013-08-14 14:43:00,
2013-08-14 10:48:00,92.8,68.7,29.91,South,188,2.5,5.6,46,0.00,,,0.00,WSDL version 420,2013-08-14 14:48:00,
2013-08-14 10:58:00,92.8,69.7,29.91,South,174,3.6,6.5,48,0.00,,,0.00,WSDL version 420,2013-08-14 14:58:00,
2013-08-14 11:03:00,93.1,70.5,29.91,SSE,151,0.8,6.5,48,0.00,,,0.00,WSDL version 420,2013-08-14 15:03:00,
2013-08-14 11:13:00,92.7,69.8,29.88,ESE,113,2.9,4.3,47,0.00,,,0.00,WSDL version 420,2013-08-14 15:13:00,
2013-08-14 11:18:00,92.8,70.1,29.88,ESE,109,2.8,4.9,47,0.00,,,0.00,WSDL version 420,2013-08-14 15:18:00,
2013-08-14 11:23:00,92.9,70.0,29.88,ESE,115,1.2,4.9,47,0.00,,,0.00,WSDL version 420,2013-08-14 15:23:00,
2013-08-14 11:28:00,93.1,70.2,29.88,SE,131,1.3,3.1,47,0.00,,,0.00,WSDL version 420,2013-08-14 15:28:00,
2013-08-14 11:33:00,93.4,70.9,29.88,ESE,115,1.1,3.1,48,0.00,,,0.00,WSDL version 420,2013-08-14 15:33:00,
2013-08-14 11:38:00,93.9,71.7,29.88,SSW,211,2.3,3.1,49,0.00,,,0.00,WSDL version 420,2013-08-14 15:38:00,
2013-08-14 11:43:00,94.0,70.8,29.88,ENE,64,1.1,3.1,46,0.00,,,0.00,WSDL version 420,2013-08-14 15:43:00,
2013-08-14 11:48:00,94.2,70.3,29.88,SSE,164,2.2,4.0,46,0.00,,,0.00,WSDL version 420,2013-08-14 15:48:00,
2013-08-14 11:55:00,94.5,69.9,29.88,SSE,153,2.1,4.3,45,0.00,,,0.00,WSDL version 420,2013-08-14 15:55:00,
2013-08-14 12:00:00,94.5,69.5,29.88,West,273,1.5,4.3,44,0.00,,,0.00,WSDL version 420,2013-08-14 16:00:00,
2013-08-14 12:05:00,94.5,69.5,29.88,South,173,2.2,4.7,45,0.00,,,0.00,WSDL version 420,2013-08-14 16:05:00,
2013-08-14 12:15:00,93.1,68.6,29.91,SSW,212,2.6,6.5,45,0.00,,,0.00,WSDL version 420,2013-08-14 16:15:00,
2013-08-14 12:20:00,93.9,69.4,29.91,SSE,150,1.5,6.5,45,0.00,,,0.00,WSDL version 420,2013-08-14 16:20:00,
2013-08-14 12:25:00,94.6,69.7,29.91,NE,48,1.5,4.0,44,0.00,,,0.00,WSDL version 420,2013-08-14 16:25:00,
2013-08-14 12:35:00,94.3,67.9,29.91,ESE,105,2.3,4.9,42,0.00,,,0.00,WSDL version 420,2013-08-14 16:35:00,
2013-08-14 12:40:00,94.8,68.0,29.91,SSE,160,2.1,4.0,42,0.00,,,0.00,WSDL version 420,2013-08-14 16:40:00,
2013-08-14 12:45:00,95.4,68.0,29.91,WNW,283,1.8,4.0,41,0.00,,,0.00,WSDL version 420,2013-08-14 16:45:00,
2013-08-14 12:50:00,95.6,68.2,29.91,South,180,1.9,3.8,41,0.00,,,0.00,WSDL version 420,2013-08-14 16:50:00,
2013-08-14 12:55:00,95.6,68.1,29.91,South,174,2.7,4.7,41,0.00,,,0.00,WSDL version 420,2013-08-14 16:55:00,
2013-08-14 13:00:00,95.9,67.1,29.91,ESE,107,1.7,7.2,38,0.00,,,0.00,WSDL version 420,2013-08-14 17:00:00,
2013-08-14 13:10:00,96.4,66.1,29.91,South,186,3.4,6.5,38,0.00,,,0.00,WSDL version 420,2013-08-14 17:10:00,
2013-08-14 13:15:00,96.8,66.4,29.88,South,170,2.4,6.5,37,0.00,,,0.00,WSDL version 420,2013-08-14 17:15:00,
2013-08-14 13:20:00,96.9,66.5,29.88,SE,141,2.2,4.0,37,0.00,,,0.00,WSDL version 420,2013-08-14 17:20:00,
2013-08-14 13:25:00,96.2,64.9,29.88,South,180,2.5,4.0,36,0.00,,,0.00,WSDL version 420,2013-08-14 17:25:00,
2013-08-14 13:35:00,96.8,67.4,29.91,ESE,122,2.9,4.3,38,0.00,,,0.00,WSDL version 420,2013-08-14 17:35:00,
2013-08-14 13:45:00,97.4,68.3,29.91,ESE,108,3.2,7.2,39,0.00,,,0.00,WSDL version 420,2013-08-14 17:45:00,
2013-08-14 13:50:00,96.8,66.4,29.91,NE,48,3.8,7.2,37,0.00,,,0.00,WSDL version 420,2013-08-14 17:50:00,
2013-08-14 13:55:00,95.5,65.1,29.91,ENE,58,3.0,7.8,37,0.00,,,0.00,WSDL version 420,2013-08-14 17:55:00,
2013-08-14 14:00:00,94.0,64.8,29.91,NNE,32,3.2,7.8,39,0.00,,,0.00,WSDL version 420,2013-08-14 18:00:00,
2013-08-14 14:05:00,93.0,64.0,29.91,NE,34,2.8,4.7,39,0.00,,,0.00,WSDL version 420,2013-08-14 18:05:00,
2013-08-14 14:10:00,92.2,64.2,29.91,ESE,115,2.9,4.9,40,0.00,,,0.00,WSDL version 420,2013-08-14 18:10:00,
2013-08-14 14:15:00,92.1,64.7,29.88,ESE,122,1.2,4.9,41,0.00,,,0.00,WSDL version 420,2013-08-14 18:15:00,
2013-08-14 14:20:00,92.2,65.1,29.88,East,80,3.7,5.4,41,0.00,,,0.00,WSDL version 420,2013-08-14 18:20:00,
2013-08-14 14:30:00,94.3,67.1,29.88,ESE,118,3.3,4.7,41,0.00,,,0.00,WSDL version 420,2013-08-14 18:30:00,
2013-08-14 14:35:00,93.8,65.7,29.88,East,90,3.5,6.5,39,0.00,,,0.00,WSDL version 420,2013-08-14 18:35:00,
2013-08-14 14:45:00,93.6,66.0,29.88,East,87,2.5,5.4,41,0.00,,,0.00,WSDL version 420,2013-08-14 18:45:00,
2013-08-14 14:55:00,95.4,66.5,29.88,SE,124,3.4,6.3,39,0.00,,,0.00,WSDL version 420,2013-08-14 18:55:00,
2013-08-14 15:00:00,95.9,66.6,29.85,ESE,103,2.3,6.3,38,0.00,,,0.00,WSDL version 420,2013-08-14 19:00:00,
2013-08-14 15:05:00,95.2,65.8,29.85,NNE,30,2.5,5.8,38,0.00,,,0.00,WSDL version 420,2013-08-14 19:05:00,
2013-08-14 15:12:00,95.0,65.6,29.85,ESE,116,3.2,6.3,39,0.00,,,0.00,WSDL version 420,2013-08-14 19:12:00,
2013-08-14 15:17:00,95.4,66.0,29.85,SE,143,3.5,6.3,39,0.00,,,0.00,WSDL version 420,2013-08-14 19:17:00,
2013-08-14 15:22:00,95.9,67.0,29.85,ENE,61,2.4,6.0,39,0.00,,,0.00,WSDL version 420,2013-08-14 19:22:00,
2013-08-14 15:27:00,95.8,66.1,29.85,ESE,109,2.7,4.3,38,0.00,,,0.00,WSDL version 420,2013-08-14 19:27:00,
2013-08-14 15:32:00,96.0,66.7,29.85,East,86,2.2,5.6,39,0.00,,,0.00,WSDL version 420,2013-08-14 19:32:00,
2013-08-14 15:42:00,95.9,66.0,29.83,NE,45,4.4,6.7,37,0.00,,,0.00,WSDL version 420,2013-08-14 19:42:00,
2013-08-14 15:47:00,95.1,65.5,29.83,East,87,4.2,8.1,38,0.00,,,0.00,WSDL version 420,2013-08-14 19:47:00,
2013-08-14 15:57:00,95.0,66.5,29.85,SSW,193,2.7,6.3,39,0.00,,,0.00,WSDL version 420,2013-08-14 19:57:00,
2013-08-14 16:07:00,95.2,65.4,29.85,ENE,77,3.7,9.8,37,0.00,,,0.00,WSDL version 420,2013-08-14 20:07:00,
2013-08-14 16:12:00,95.6,66.5,29.85,SE,145,2.0,9.8,39,0.00,,,0.00,WSDL version 420,2013-08-14 20:12:00,
2013-08-14 16:17:00,96.2,66.7,29.85,East,84,2.8,4.3,38,0.00,,,0.00,WSDL version 420,2013-08-14 20:17:00,
2013-08-14 16:24:00,96.1,66.6,29.85,SE,141,3.2,5.8,38,0.00,,,0.00,WSDL version 420,2013-08-14 20:24:00,
2013-08-14 16:34:00,93.3,64.3,29.85,SSE,149,2.3,8.7,39,0.00,,,0.00,WSDL version 420,2013-08-14 20:34:00,
2013-08-14 16:41:00,91.8,64.4,29.85,SW,227,2.9,6.3,41,0.00,,,0.00,WSDL version 420,2013-08-14 20:41:00,
2013-08-14 16:51:00,90.6,65.5,29.85,ESE,121,2.7,6.5,44,0.00,,,0.00,WSDL version 420,2013-08-14 20:51:00,
2013-08-14 16:56:00,90.0,65.8,29.85,ESE,104,2.1,6.5,45,0.00,,,0.00,WSDL version 420,2013-08-14 20:56:00,
2013-08-14 17:01:00,89.9,66.1,29.85,NE,51,3.6,5.8,46,0.00,,,0.00,WSDL version 420,2013-08-14 21:01:00,
2013-08-14 17:06:00,90.1,67.0,29.85,East,93,2.6,5.8,47,0.00,,,0.00,WSDL version 420,2013-08-14 21:06:00,
2013-08-14 17:11:00,89.9,66.8,29.85,NE,48,3.3,6.0,47,0.00,,,0.00,WSDL version 420,2013-08-14 21:11:00,
2013-08-14 17:16:00,90.0,67.1,29.85,SW,219,2.3,6.0,47,0.00,,,0.00,WSDL version 420,2013-08-14 21:16:00,
2013-08-14 17:21:00,90.5,67.5,29.85,SE,146,2.5,5.4,47,0.00,,,0.00,WSDL version 420,2013-08-14 21:21:00,
2013-08-14 17:26:00,91.2,67.6,29.85,NE,45,2.7,5.8,46,0.00,,,0.00,WSDL version 420,2013-08-14 21:26:00,
2013-08-14 17:31:00,91.9,67.5,29.85,SE,132,2.8,5.8,45,0.00,,,0.00,WSDL version 420,2013-08-14 21:31:00,
2013-08-14 17:36:00,92.5,66.6,29.85,ESE,116,3.0,7.2,42,0.00,,,0.00,WSDL version 420,2013-08-14 21:36:00,
2013-08-14 17:41:00,92.5,66.1,29.85,SSE,166,2.4,7.2,42,0.00,,,0.00,WSDL version 420,2013-08-14 21:41:00,
2013-08-14 17:46:00,92.5,65.9,29.85,SSE,158,3.1,5.6,41,0.00,,,0.00,WSDL version 420,2013-08-14 21:46:00,
2013-08-14 17:51:00,92.4,65.6,29.85,NW,307,2.3,5.6,41,0.00,,,0.00,WSDL version 420,2013-08-14 21:51:00,
2013-08-14 17:56:00,91.9,65.2,29.85,East,96,2.3,4.9,42,0.00,,,0.00,WSDL version 420,2013-08-14 21:56:00,
2013-08-14 18:01:00,91.4,65.1,29.85,East,87,1.5,4.3,42,0.00,,,0.00,WSDL version 420,2013-08-14 22:01:00,
2013-08-14 18:11:00,90.9,65.3,29.85,SW,222,2.0,4.0,43,0.00,,,0.00,WSDL version 420,2013-08-14 22:11:00,
2013-08-14 18:16:00,90.6,65.1,29.85,ENE,62,2.6,6.3,43,0.00,,,0.00,WSDL version 420,2013-08-14 22:16:00,
2013-08-14 18:21:00,90.3,64.8,29.85,NNE,27,1.8,6.3,43,0.00,,,0.00,WSDL version 420,2013-08-14 22:21:00,
2013-08-14 18:26:00,90.1,64.9,29.85,ENE,68,3.4,7.4,44,0.00,,,0.00,WSDL version 420,2013-08-14 22:26:00,
2013-08-14 18:31:00,89.7,65.1,29.85,SSE,163,1.9,7.4,45,0.00,,,0.00,WSDL version 420,2013-08-14 22:31:00,
2013-08-14 18:36:00,89.5,65.4,29.85,South,170,1.5,4.3,45,0.00,,,0.00,WSDL version 420,2013-08-14 22:36:00,
2013-08-14 18:41:00,89.4,65.6,29.85,SSE,161,2.2,4.3,46,0.00,,,0.00,WSDL version 420,2013-08-14 22:41:00,
2013-08-14 18:46:00,89.1,65.7,29.83,ESE,116,1.7,3.8,46,0.00,,,0.00,WSDL version 420,2013-08-14 22:46:00,
2013-08-14 18:56:00,88.6,65.2,29.83,South,172,2.5,4.0,46,0.00,,,0.00,WSDL version 420,2013-08-14 22:56:00,
2013-08-14 19:05:00,88.0,64.8,29.85,ESE,116,2.2,6.3,47,0.00,,,0.00,WSDL version 420,2013-08-14 23:05:00,
2013-08-14 19:10:00,87.6,65.3,29.85,East,83,1.6,6.5,48,0.00,,,0.00,WSDL version 420,2013-08-14 23:10:00,
2013-08-14 19:15:00,87.2,65.7,29.83,SSE,155,1.5,6.5,49,0.00,,,0.00,WSDL version 420,2013-08-14 23:15:00,
2013-08-14 19:20:00,87.0,66.0,29.83,WSW,238,2.0,3.8,50,0.00,,,0.00,WSDL version 420,2013-08-14 23:20:00,
2013-08-14 19:25:00,86.8,66.4,29.83,SE,124,1.5,3.8,51,0.00,,,0.00,WSDL version 420,2013-08-14 23:25:00,
2013-08-14 19:30:00,86.6,66.7,29.85,ENE,68,1.9,4.0,52,0.00,,,0.00,WSDL version 420,2013-08-14 23:30:00,
2013-08-14 19:35:00,86.2,67.1,29.85,SSE,150,2.3,4.0,53,0.00,,,0.00,WSDL version 420,2013-08-14 23:35:00,
2013-08-14 19:40:00,86.0,66.9,29.85,South,186,1.5,3.8,53,0.00,,,0.00,WSDL version 420,2013-08-14 23:40:00,
2013-08-14 19:45:00,85.7,66.6,29.85,ESE,122,2.0,4.0,53,0.00,,,0.00,WSDL version 420,2013-08-14 23:45:00,
2013-08-14 19:50:00,85.5,66.6,29.85,SSE,158,0.8,4.0,54,0.00,,,0.00,WSDL version 420,2013-08-14 23:50:00,
2013-08-14 19:55:00,85.2,66.7,29.85,SSE,164,0.0,2.2,54,0.00,,,0.00,WSDL version 420,2013-08-14 23:55:00,
2013-08-14 20:00:00,84.9,67.0,29.88,South,183,0.5,2.2,55,0.00,,,0.00,WSDL version 420,2013-08-15 00:00:00,
2013-08-14 20:05:00,84.7,67.2,29.88,SSE,164,1.6,2.9,56,0.00,,,0.00,WSDL version 420,2013-08-15 00:05:00,
2013-08-14 20:15:00,84.1,67.2,29.88,SE,129,1.5,3.1,57,0.00,,,0.00,WSDL version 420,2013-08-15 00:15:00,
2013-08-14 20:20:00,84.0,67.6,29.88,South,174,1.9,3.1,58,0.00,,,0.00,WSDL version 420,2013-08-15 00:20:00,
2013-08-14 20:25:00,83.8,67.4,29.88,SE,138,0.0,2.9,58,0.00,,,0.00,WSDL version 420,2013-08-15 00:25:00,
2013-08-14 20:30:00,83.6,67.7,29.88,SE,129,0.2,2.9,59,0.00,,,0.00,WSDL version 420,2013-08-15 00:30:00,
2013-08-14 20:35:00,83.4,67.7,29.88,WSW,248,0.6,2.5,60,0.00,,,0.00,WSDL version 420,2013-08-15 00:35:00,
2013-08-14 20:40:00,83.2,67.9,29.88,South,183,1.4,3.1,60,0.00,,,0.00,WSDL version 420,2013-08-15 00:40:00,
2013-08-14 20:45:00,83.1,67.8,29.88,SE,132,2.1,5.4,60,0.00,,,0.00,WSDL version 420,2013-08-15 00:45:00,
2013-08-14 20:50:00,82.9,67.6,29.88,ESE,121,0.6,5.4,60,0.00,,,0.00,WSDL version 420,2013-08-15 00:50:00,
2013-08-14 20:55:00,82.9,68.1,29.88,South,180,0.6,3.1,61,0.00,,,0.00,WSDL version 420,2013-08-15 00:55:00,
2013-08-14 21:00:00,82.7,67.9,29.91,West,267,0.0,2.0,61,0.00,,,0.00,WSDL version 420,2013-08-15 01:00:00,
2013-08-14 21:10:00,82.5,68.1,29.91,SE,135,0.0,1.6,62,0.00,,,0.00,WSDL version 420,2013-08-15 01:10:00,
2013-08-14 21:20:00,82.2,68.4,29.91,ESE,103,0.0,2.0,63,0.00,,,0.00,WSDL version 420,2013-08-15 01:20:00,
2013-08-14 21:25:00,82.2,68.6,29.91,NE,45,0.0,0.0,64,0.00,,,0.00,WSDL version 420,2013-08-15 01:25:00,
2013-08-14 21:30:00,82.2,68.8,29.88,East,84,0.0,0.0,64,0.00,,,0.00,WSDL version 420,2013-08-15 01:30:00,
2013-08-14 21:40:00,82.0,69.0,29.88,SSE,150,0.0,2.2,65,0.00,,,0.00,WSDL version 420,2013-08-15 01:40:00,
2013-08-14 21:45:00,81.9,68.9,29.91,South,180,0.0,2.2,65,0.00,,,0.00,WSDL version 420,2013-08-15 01:45:00,
2013-08-14 21:50:00,81.9,69.0,29.91,SSE,149,0.6,1.6,66,0.00,,,0.00,WSDL version 420,2013-08-15 01:50:00,
2013-08-14 21:55:00,81.9,69.4,29.91,SSW,203,0.7,2.2,66,0.00,,,0.00,WSDL version 420,2013-08-15 01:55:00,
2013-08-14 22:00:00,81.9,69.4,29.91,SSW,203,0.0,2.2,66,0.00,,,0.00,WSDL version 420,2013-08-15 02:00:00,
2013-08-14 22:05:00,81.9,69.4,29.91,South,174,0.0,0.9,66,0.00,,,0.00,WSDL version 420,2013-08-15 02:05:00,
2013-08-14 22:10:00,81.9,69.5,29.91,South,180,0.7,2.0,67,0.00,,,0.00,WSDL version 420,2013-08-15 02:10:00,
2013-08-14 22:15:00,81.7,69.7,29.91,South,180,0.0,2.2,67,0.00,,,0.00,WSDL version 420,2013-08-15 02:15:00,
2013-08-14 22:20:00,81.7,69.7,29.91,SSW,205,0.0,2.2,67,0.00,,,0.00,WSDL version 420,2013-08-15 02:20:00,
2013-08-14 22:25:00,81.7,69.4,29.91,East,90,0.0,0.0,66,0.00,,,0.00,WSDL version 420,2013-08-15 02:25:00,
2013-08-14 22:30:00,81.6,69.6,29.91,South,180,0.0,0.0,67,0.00,,,0.00,WSDL version 420,2013-08-15 02:30:00,
2013-08-14 22:35:00,81.5,69.5,29.91,South,177,0.0,0.0,67,0.00,,,0.00,WSDL version 420,2013-08-15 02:35:00,
2013-08-14 22:40:00,81.4,69.4,29.91,South,180,0.0,0.0,67,0.00,,,0.00,WSDL version 420,2013-08-15 02:40:00,
2013-08-14 22:45:00,81.3,69.3,29.94,South,180,0.0,0.0,67,0.00,,,0.00,WSDL version 420,2013-08-15 02:45:00,
2013-08-14 22:50:00,81.3,69.3,29.94,ESE,117,0.0,0.0,67,0.00,,,0.00,WSDL version 420,2013-08-15 02:50:00,
2013-08-14 22:55:00,81.2,69.3,29.94,SE,135,0.0,1.1,67,0.00,,,0.00,WSDL version 420,2013-08-15 02:55:00,
2013-08-14 23:00:00,81.1,69.6,29.94,ESE,122,0.0,1.1,68,0.00,,,0.00,WSDL version 420,2013-08-15 03:00:00,
2013-08-14 23:05:00,81.1,69.6,29.94,South,180,0.0,0.0,68,0.00,,,0.00,WSDL version 420,2013-08-15 03:05:00,
2013-08-14 23:10:00,81.1,69.6,29.94,South,180,0.0,0.0,68,0.00,,,0.00,WSDL version 420,2013-08-15 03:10:00,
2013-08-14 23:15:00,81.1,69.5,29.94,South,180,0.0,0.0,68,0.00,,,0.00,WSDL version 420,2013-08-15 03:15:00,
2013-08-14 23:20:00,81.0,69.4,29.94,South,180,0.0,0.0,68,0.00,,,0.00,WSDL version 420,2013-08-15 03:20:00,
2013-08-14 23:25:00,81.0,69.4,29.94,South,180,0.0,0.0,68,0.00,,,0.00,WSDL version 420,2013-08-15 03:25:00,
2013-08-14 23:30:00,80.9,69.4,29.94,South,180,0.0,0.0,69,0.00,,,0.00,WSDL version 420,2013-08-15 03:30:00,
2013-08-14 23:35:00,80.8,69.7,29.94,South,180,0.0,0.0,69,0.00,,,0.00,WSDL version 420,2013-08-15 03:35:00,
2013-08-14 23:40:00,80.8,69.7,29.94,South,180,0.0,0.9,69,0.00,,,0.00,WSDL version 420,2013-08-15 03:40:00,
2013-08-14 23:45:00,80.7,69.6,29.94,SSW,199,0.1,2.0,69,0.00,,,0.00,WSDL version 420,2013-08-15 03:45:00,
2013-08-14 23:50:00,80.6,69.8,29.94,South,176,1.1,2.0,70,0.00,,,0.00,WSDL version 420,2013-08-15 03:50:00,
2013-08-14 23:55:00,80.6,69.9,29.94,South,180,0.0,2.0,70,0.00,,,0.00,WSDL version 420,2013-08-15 03:55:00,